Globalstar M033

operational
NORAD ID: 25909 Int'l Des: 1999-049 Owner: GLOBT Country: US Constellation: globalstar
LEOCIRCULAR

关于 Globalstar M033

正在加载描述...

实时位置

正在加载3D地球...

即将过境

高度历史

Altitude vs Time

uPlot chart will show altitude changes over time

两行轨道根数

1 25909U 99049C 26062.75650934 -.00000105 00000-0 -12408-3 0 9997
2 25909 51.9943 338.2385 0015036 78.0130 282.2402 12.20304614567432
Epoch: Mar 3, 2026 • Age: 30 hours

当前状态

高度 1583.6 km
速度 7.08 km/s
星下点 29.12°N, 108.11°E
发射日期 Sep 22, 1999
运行时间 26.4 years
类型 communications

技术详情

分类 Payload
质量 450.00 kg
干质量 380.00 kg
总质量 450.00 kg
长度 1.50 m
直径 0.60 m
跨度 12.00 m
形状 Box + 2 Pan
制造商 LOR
平台类型 LS-400
阶段状态 In Orbit
所有者/国家 GLOBT/US

大型星座

Loading constellations...